Location: Newark
(49.3808°N, 3.1844°E)
Time: 10:29:21
(UTC+00:00)

Transit 4A - Visible Passes

Search period start: 13 November 2019 00:00
Search period end: 23 November 2019 00:00
Orbit: 868 x 976 km, 66.8° (Epoch: 12 November)

Date Brightness Start Highest point End Pass type
(mag) Time Alt. Az. Time Alt. Az. Time Alt. Az.
13 Nov 10.3 02:39:22 13° NNE 02:39:22 13° NNE 02:40:38 10° NNE visible
13 Nov 9.9 04:22:53 12° NNW 04:25:40 16° NNE 04:29:15 10° NE visible
13 Nov 9.1 06:08:31 10° NNW 06:13:56 34° NE 06:19:13 10° ESE visible
14 Nov 10.2 02:48:34 14° NNE 02:48:34 14° NNE 02:50:10 10° NNE visible
14 Nov 9.9 04:32:05 12° NNW 04:35:31 18° NNE 04:39:27 10° ENE visible
14 Nov 8.8 06:17:48 10° NNW 06:23:30 43° NE 06:29:04 10° ESE visible
15 Nov 10.2 02:57:47 14° N 02:57:47 14° N 02:59:51 10° NNE visible
15 Nov 9.8 04:41:18 11° NNW 04:45:20 20° NNE 04:49:38 10° ENE visible
16 Nov 10.1 03:07:00 15° N 03:07:00 15° N 03:09:43 10° NE visible
16 Nov 9.6 04:50:31 11° NNW 04:55:05 24° NNE 04:59:47 10° E visible
17 Nov 10.0 03:16:15 15° N 03:16:20 15° N 03:19:45 10° NE visible
17 Nov 9.3 04:59:46 11° NNW 05:04:47 29° NE 05:09:51 10° E visible
18 Nov 9.9 03:25:32 16° N 03:26:13 17° NNE 03:29:54 10° NE visible
18 Nov 9.0 05:09:03 11° NNW 05:14:24 37° NE 05:19:47 10° ESE visible
19 Nov 9.8 03:34:50 18° N 03:36:04 19° NNE 03:40:06 10° ENE visible
19 Nov 8.6 05:18:21 11° NNW 05:23:56 48° NE 05:29:34 10° ESE visible
20 Nov 9.7 03:44:10 19° N 03:45:51 21° NNE 03:50:17 10° ENE visible
20 Nov 8.2 05:27:42 11° NNW 05:33:25 64° NE 05:39:11 10° SE visible
21 Nov 10.6 02:10:01 11° NE 02:10:01 11° NE 02:10:17 10° NE visible
21 Nov 9.5 03:53:32 21° N 03:55:35 26° NNE 04:00:25 10° E visible
21 Nov 7.8 05:37:04 11° NW 05:42:48 86° NE 05:48:37 10° SE visible
22 Nov 10.5 02:19:27 12° NE 02:19:27 12° NE 02:20:22 10° NE visible
22 Nov 9.2 04:02:59 24° N 04:05:15 32° NE 04:10:26 10° E visible
22 Nov 7.8 05:46:31 11° NW 05:52:07 70° WSW 05:57:53 10° SSE visible
